CW2732 Weather Reports


Display with metric or nautical units.
time (UTC)temp
F
wind
direction
speed
MPH
gust
MPH
rain 1hr
in
rain 24hr
in
rain mn
in
humidity
%
barometer
mb
20260510173353 75 187 3.0 17.0 0.00 0.00 0.00 51 1011.4
20260510172343 76 162 2.0 17.0 0.00 0.00 0.00 50 1011.5
20260510171342 76 221 4.0 17.0 0.00 0.00 0.00 50 1011.4
20260510170340 76 148 4.0 17.0 0.00 0.00 0.00 49 1011.5
20260510165352 77 119 4.0 17.0 0.00 0.00 0.00 48 1011.4
20260510164337 77 155 2.0 17.0 0.00 0.00 0.00 47 1011.6
20260510163336 78 246 3.0 17.0 0.00 0.00 0.00 47 1011.5
20260510162333 79 148 3.0 17.0 0.00 0.00 0.00 46 1011.4
20260510161341 79 139 1.0 17.0 0.00 0.00 0.00 47 1011.4
20260510160339 79 148 3.0 17.0 0.00 0.00 0.00 47 1011.4
20260510155351 80 181 2.0 17.0 0.00 0.00 0.00 48 1011.3
20260510154338 80 207 4.0 17.0 0.00 0.00 0.00 46 1011.3
20260510153335 79 219 2.0 17.0 0.00 0.00 0.00 48 1011.3
20260510152351 80 254 3.0 17.0 0.00 0.00 0.00 47 1011.4
20260510151349 80 173 4.0 17.0 0.00 0.00 0.00 46 1011.6
20260510150336 80 215 3.0 17.0 0.00 0.00 0.00 47 1011.6
20260510145330 80 121 4.0 17.0 0.00 0.00 0.00 46 1011.8
20260510144349 80 195 4.0 17.0 0.00 0.00 0.00 46 1011.7
20260510143337 79 279 2.0 17.0 0.00 0.00 0.00 49 1011.7
20260510142338 77 150 4.0 17.0 0.00 0.00 0.00 61 1011.8
20260510141329 75 123 6.0 17.0 0.00 0.00 0.00 67 1012.0
20260510140405 74 110 7.0 17.0 0.00 0.00 0.00 70 1012.2
20260510135331 74 103 11.0 17.0 0.00 0.00 0.00 68 1012.4
20260510134348 73 109 4.0 16.0 0.00 0.00 0.00 70 1012.6
20260510133335 73 141 6.0 16.0 0.00 0.00 0.00 71 1012.7
20260510132334 74 63 5.0 16.0 0.00 0.00 0.00 69 1012.8
20260510131353 72 130 6.0 16.0 0.00 0.00 0.00 73 1013.0
20260510130344 71 57 7.0 16.0 0.00 0.00 0.00 74 1013.3
20260510125337 71 99 5.0 16.0 0.00 0.00 0.00 77 1013.4
20260510124335 70 67 4.0 16.0 0.00 0.00 0.00 77 1013.6
20260510123409 69 16 6.0 16.0 0.00 0.00 0.00 76 1013.8
20260510122338 70 140 4.0 16.0 0.00 0.00 0.00 74 1013.9
20260510121334 70 39 4.0 16.0 0.00 0.00 0.00 73 1014.0
20260510120354 71 68 7.0 16.0 0.00 0.00 0.00 71 1014.0
20260510115337 71 105 7.0 16.0 0.00 0.04 0.00 66 1014.1
20260510114337 73 113 5.0 16.0 0.00 0.04 0.00 61 1014.1
20260510113356 73 186 7.0 16.0 0.00 0.04 0.00 63 1014.5
20260510112415 75 101 8.0 16.0 0.00 0.04 0.00 60 1014.4
20260510111341 78 157 6.0 13.0 0.00 0.04 0.00 55 1014.4
20260510110339 79 200 2.0 8.0 0.00 0.04 0.00 55 1014.3
20260510105350 78 140 2.0 8.0 0.00 0.39 0.00 54 1014.4
20260510104336 78 117 1.0 8.0 0.00 0.39 0.00 51 1014.3
20260510103355 77 142 2.0 8.0 0.00 0.39 0.00 53 1014.2
20260510102414 77 115 4.0 8.0 0.00 0.39 0.00 50 1014.3
20260510101343 78 221 2.0 8.0 0.00 0.39 0.00 48 1014.3
20260510100403 77 132 1.0 8.0 0.00 0.39 0.00 52 1014.3
20260510095332 76 147 1.0 8.0 0.00 1.18 0.00 52 1014.3
20260510094336 75 131 2.0 8.0 0.00 1.18 0.00 55 1014.5
20260510093334 75 115 1.0 8.0 0.00 1.18 0.00 56 1014.7
20260510092352 75 78 2.0 8.0 0.00 1.18 0.00 56 1014.7
20260510091340 76 121 1.0 8.0 0.00 1.18 0.00 55 1014.7
20260510090338 76 113 2.0 8.0 0.00 1.18 0.00 56 1014.8
20260510085329 75 165 0.0 8.0 0.00 1.61 0.00 57 1014.9
20260510084338 75 242 1.0 8.0 0.00 1.61 0.00 58 1014.7
20260510083335 74 73 1.0 8.0 0.00 1.61 0.00 57 1014.7
20260510082355 74 119 1.0 8.0 0.00 1.61 0.00 58 1014.8
20260510081339 73 314 0.0 8.0 0.00 1.61 0.00 63 1014.8
20260510080339 72 169 0.0 8.0 0.00 1.61 0.00 63 1014.9
20260510075333 71 309 1.0 8.0 0.00 1.85 0.00 67 1014.9
20260510074344 70 11 0.0 8.0 0.00 1.85 0.00 69 1014.9
20260510073343 69 273 1.0 8.0 0.00 1.85 0.00 71 1015.0
20260510072403 68 325 1.0 8.0 0.00 1.85 0.00 72 1014.9
20260510071333 68 268 1.0 8.0 0.00 1.85 0.00 72 1014.7
20260510070332 66 337 1.0 8.0 0.00 1.85 0.00 74 1014.7
20260510065345 65 324 1.0 8.0 0.00 2.64 0.00 76 1014.6
20260510064331 64 350 0.0 8.0 0.00 2.64 0.00 78 1014.5
20260510063329 63 340 1.0 8.0 0.00 2.64 0.00 81 1014.5
20260510062346 62 300 3.0 8.0 0.00 2.64 0.00 81 1014.7
20260510061336 62 33 1.0 5.0 0.00 2.64 0.00 81 1014.6
20260510060355 61 330 2.0 5.0 0.00 2.64 0.00 82 1014.5
20260510055343 60 322 1.0 3.0 0.00 2.91 0.00 85 1014.4
20260510054343 59 309 0.0 3.0 0.00 2.91 0.00 87 1014.4
20260510053334 58 312 1.0 4.0 0.00 2.91 0.00 87 1014.4
20260510052347 58 216 1.0 3.0 0.00 2.91 0.00 87 1014.3
20260510051345 58 317 0.0 3.0 0.00 2.91 0.00 88 1014.4
20260510050402 58 327 0.0 2.0 0.00 2.91 0.00 88 1014.2
20260510045353 58 317 0.0 2.0 0.00 2.91 0.00 87 1014.4
20260510044344 58 254 0.0 1.0 0.00 2.91 0.00 87 1014.4
20260510043333 58 267 0.0 2.0 0.00 2.91 0.00 87 1014.4
20260510042334 58 288 0.0 1.0 0.00 2.91 0.00 87 1014.3
20260510041351 59 291 0.0 3.0 0.00 2.91 0.00 86 1014.2
20260510040339 59 274 0.0 0.0 0.00 2.91 0.00 86 1014.1
20260510035328 59 290 0.0 2.0 0.00 2.91 0.00 86 1014.1
20260510034348 59 284 1.0 3.0 0.00 2.91 0.00 86 1013.9
20260510033337 59 307 1.0 3.0 0.00 2.91 0.00 86 1014.0
20260510032357 59 306 1.0 4.0 0.00 2.91 0.00 86 1013.9
20260510031354 59 308 1.0 5.0 0.00 2.91 0.00 87 1013.9
20260510030352 59 330 1.0 4.0 0.00 2.91 0.00 87 1013.9
20260510025335 59 314 1.0 4.0 0.00 2.91 0.00 87 1013.9
20260510024334 59 345 1.0 4.0 0.00 2.91 0.00 87 1013.9
20260510023348 59 341 0.0 3.0 0.00 2.91 0.00 87 1013.9
20260510022338 59 306 0.0 2.0 0.00 2.91 0.00 87 1013.9
20260510021338 59 328 1.0 6.0 0.00 2.91 0.00 87 1013.9
20260510020350 59 300 3.0 7.0 0.00 2.91 0.00 87 1013.8
20260510015343 59 306 1.0 4.0 0.00 2.91 0.00 88 1013.9
20260510014343 59 324 0.0 3.0 0.00 2.91 0.00 88 1013.8
20260510013333 59 294 2.0 4.0 0.00 2.91 0.00 88 1013.9
20260510012333 59 312 1.0 4.0 0.00 2.91 0.00 88 1013.9
20260510011351 59 300 1.0 4.0 0.00 2.91 0.00 88 1013.9
20260510010340 59 319 1.0 3.0 0.00 2.91 0.00 88 1014.0
20260510005350 59 25 0.0 3.0 0.00 2.91 0.00 88 1014.1
20260510004346 59 343 0.0 2.0 0.00 2.91 0.00 87 1014.1
20260510003344 59 331 0.0 2.0 0.00 2.91 0.00 87 1014.2
20260510002344 59 360 0.0 4.0 0.00 2.91 0.00 87 1014.2
20260510001334 59 355 0.0 2.0 0.00 2.91 0.00 86 1014.2
20260510000333 60 323 0.0 1.0 0.00 2.91 0.00 86 1014.4
20260509235343 60 318 0.0 1.0 0.00 2.91 0.00 86 1014.5
20260509234330 60 355 0.0 2.0 0.00 2.91 0.00 86 1014.4
20260509233330 60 338 0.0 2.0 0.00 2.91 0.00 86 1014.5
20260509232403 60 11 0.0 0.0 0.00 2.91 0.00 85 1014.6
20260509231342 60 351 0.0 0.0 0.00 2.91 0.00 85 1014.5
20260509230332 61 360 0.0 0.0 0.00 2.91 0.00 85 1014.8
20260509225342 61 10 0.0 0.0 0.00 2.91 0.00 85 1014.8
20260509224332 61 143 0.0 0.0 0.00 2.91 0.00 85 1014.8
20260509223332 61 142 0.0 0.0 0.00 2.91 0.00 84 1014.7
20260509222346 61 142 0.0 0.0 0.00 2.91 0.00 84 1014.7
20260509221334 61 142 0.0 2.0 0.00 2.91 0.00 84 1014.7
20260509220333 61 143 0.0 0.0 0.00 2.91 0.00 84 1014.5
20260509215333 61 142 0.0 0.0 0.00 2.91 0.58 83 1014.5
20260509214351 61 143 0.0 0.0 0.00 2.91 0.58 83 1014.6
20260509213401 61 143 0.0 0.0 0.00 2.91 0.58 82 1014.6
20260509212337 62 142 0.0 0.0 0.00 2.91 0.58 82 1014.5
20260509211334 62 133 1.0 4.0 0.00 2.91 0.58 82 1014.5
20260509210409 62 147 2.0 4.0 0.00 2.91 0.58 81 1014.5
20260509205359 62 152 1.0 7.0 0.00 2.91 0.58 82 1014.4
20260509204356 62 120 1.0 4.0 0.00 2.91 0.58 82 1014.3
20260509203344 63 133 0.0 0.0 0.00 2.91 0.58 82 1014.4
20260509202344 63 119 0.0 0.0 0.00 2.91 0.58 82 1014.3
20260509201355 63 118 0.0 0.0 0.00 2.91 0.58 83 1014.1
20260509200332 63 118 0.0 0.0 0.00 2.91 0.58 82 1013.9
20260509195340 63 119 0.0 0.0 0.00 2.91 0.58 80 1013.8
20260509194357 63 119 0.0 2.0 0.00 2.91 0.58 79 1013.7
20260509193333 64 123 0.0 3.0 0.00 2.91 0.58 79 1013.6
20260509192347 64 118 1.0 4.0 0.00 2.91 0.58 80 1013.5
20260509191338 64 139 1.0 3.0 0.00 2.91 0.58 82 1013.4
20260509190335 64 122 0.0 3.0 0.00 2.91 0.58 84 1013.3
20260509185404 64 101 0.0 3.0 0.00 2.91 0.58 84 1013.3
20260509184343 65 76 2.0 4.0 0.00 2.91 0.58 84 1013.0
20260509183332 65 123 3.0 7.0 0.00 2.91 0.58 83 1012.7
20260509182346 65 101 2.0 4.0 0.00 2.91 0.58 82 1012.8
20260509181403 66 103 4.0 8.0 0.00 2.91 0.58 80 1012.8
20260509180341 66 121 2.0 4.0 0.00 2.91 0.58 77 1012.8
20260509175334 66 128 3.0 7.0 0.00 2.91 0.58 75 1012.6
20260509174333 66 238 2.0 7.0 0.00 2.91 0.58 76 1012.4